timestamp,wind_dir_avg,wind_spd_max_dir,wind_spd_avg,wind_spd_gust,battery_voltage,lat,long
2018-03-04 00:00:00+00:00,63.0,60.0,11.94,13.42,,47.59359,-54.27349
2018-03-04 00:10:00+00:00,66.0,70.0,11.23,12.44,,47.59359,-54.27349
2018-03-04 00:20:00+00:00,71.0,72.0,11.99,13.4,,47.59359,-54.27349
2018-03-04 00:30:00+00:00,69.0,69.0,12.14,13.27,,47.59359,-54.27349
2018-03-04 00:40:00+00:00,63.0,65.0,9.96,11.42,,47.59359,-54.27349
2018-03-04 00:50:00+00:00,63.0,68.0,11.19,12.42,,47.59359,-54.27349
2018-03-04 01:00:00+00:00,68.0,72.0,10.84,12.79,,47.59359,-54.27349
2018-03-04 01:10:00+00:00,73.0,73.0,15.97,17.36,,47.59359,-54.27349
2018-03-04 01:20:00+00:00,71.0,68.0,15.36,16.7,,47.59359,-54.27349
2018-03-04 01:30:00+00:00,74.0,76.0,15.45,16.64,,47.59359,-54.27349
2018-03-04 01:40:00+00:00,77.0,79.0,16.89,19.18,,47.59359,-54.27349
2018-03-04 01:50:00+00:00,78.0,76.0,18.39,19.87,,47.59359,-54.27349
2018-03-04 02:00:00+00:00,75.0,74.0,18.6,21.93,,47.59359,-54.27349
2018-03-04 02:10:00+00:00,74.0,75.0,17.16,20.09,,47.59359,-54.27349
2018-03-04 02:20:00+00:00,68.0,70.0,12.2,14.81,,47.59359,-54.27349
2018-03-04 02:30:00+00:00,66.0,65.0,12.33,14.35,,47.59359,-54.27349
2018-03-04 02:40:00+00:00,66.0,61.0,12.25,14.39,,47.59359,-54.27349
2018-03-04 02:50:00+00:00,68.0,68.0,13.77,16.56,,47.59359,-54.27349
2018-03-04 03:00:00+00:00,64.0,61.0,13.81,15.72,,47.59359,-54.27349
2018-03-04 03:10:00+00:00,63.0,62.0,12.58,14.71,,47.59359,-54.27349
2018-03-04 03:20:00+00:00,61.0,60.0,12.91,15.57,,47.59359,-54.27349
2018-03-04 03:30:00+00:00,61.0,61.0,12.69,15.27,,47.59359,-54.27349
2018-03-04 03:40:00+00:00,62.0,59.0,13.48,16.26,,47.59359,-54.27349
2018-03-04 03:50:00+00:00,58.0,57.0,12.07,14.33,,47.59359,-54.27349
2018-03-04 04:00:00+00:00,58.0,61.0,11.71,14.73,,47.59359,-54.27349
2018-03-04 04:10:00+00:00,56.0,67.0,11.15,13.55,,47.59359,-54.27349
2018-03-04 04:20:00+00:00,58.0,60.0,12.18,15.88,,47.59359,-54.27349
2018-03-04 04:30:00+00:00,58.0,57.0,12.3,15.55,,47.59359,-54.27349
2018-03-04 04:40:00+00:00,59.0,62.0,11.83,13.8,,47.59359,-54.27349
2018-03-04 04:50:00+00:00,62.0,64.0,11.76,14.07,,47.59359,-54.27349
2018-03-04 05:00:00+00:00,60.0,60.0,13.06,15.06,,47.59359,-54.27349
2018-03-04 05:10:00+00:00,63.0,61.0,13.21,15.14,,47.59359,-54.27349
2018-03-04 05:20:00+00:00,58.0,61.0,12.63,14.49,,47.59359,-54.27349
2018-03-04 05:30:00+00:00,62.0,62.0,12.57,14.76,,47.59359,-54.27349
2018-03-04 05:40:00+00:00,59.0,61.0,12.09,15.69,,47.59359,-54.27349
2018-03-04 05:50:00+00:00,60.0,60.0,12.5,14.85,,47.59359,-54.27349
2018-03-04 06:00:00+00:00,62.0,63.0,12.11,14.29,,47.59359,-54.27349
2018-03-04 06:10:00+00:00,62.0,61.0,11.6,14.11,,47.59359,-54.27349
2018-03-04 06:20:00+00:00,65.0,59.0,11.05,13.21,,47.59359,-54.27349
2018-03-04 06:30:00+00:00,73.0,76.0,11.5,12.93,,47.59359,-54.27349
2018-03-04 06:40:00+00:00,69.0,76.0,10.86,12.12,,47.59359,-54.27349
2018-03-04 06:50:00+00:00,61.0,58.0,9.97,11.54,,47.59359,-54.27349
2018-03-04 07:00:00+00:00,60.0,57.0,9.98,11.61,,47.59359,-54.27349
2018-03-04 07:10:00+00:00,67.0,71.0,11.55,13.37,,47.59359,-54.27349
2018-03-04 07:20:00+00:00,56.0,59.0,9.51,10.78,,47.59359,-54.27349
2018-03-04 07:30:00+00:00,56.0,59.0,10.85,12.62,,47.59359,-54.27349
2018-03-04 07:40:00+00:00,57.0,59.0,12.58,15.7,,47.59359,-54.27349
2018-03-04 07:50:00+00:00,55.0,45.0,12.69,14.26,,47.59359,-54.27349
2018-03-04 08:00:00+00:00,57.0,59.0,11.87,14.53,,47.59359,-54.27349
2018-03-04 08:10:00+00:00,60.0,59.0,10.8,13.47,,47.59359,-54.27349
2018-03-04 08:20:00+00:00,67.0,71.0,9.85,11.51,,47.59359,-54.27349
2018-03-04 08:30:00+00:00,67.0,72.0,8.87,10.33,,47.59359,-54.27349
2018-03-04 08:40:00+00:00,77.0,78.0,12.44,16.3,,47.59359,-54.27349
2018-03-04 08:50:00+00:00,74.0,73.0,11.26,16.02,,47.59359,-54.27349
2018-03-04 09:00:00+00:00,59.0,64.0,12.71,14.79,,47.59359,-54.27349
2018-03-04 09:10:00+00:00,58.0,63.0,14.04,16.77,,47.59359,-54.27349
2018-03-04 09:20:00+00:00,60.0,62.0,14.2,16.67,,47.59359,-54.27349
2018-03-04 09:30:00+00:00,66.0,69.0,14.69,17.03,,47.59359,-54.27349
2018-03-04 09:40:00+00:00,63.0,70.0,14.4,17.07,,47.59359,-54.27349
2018-03-04 09:50:00+00:00,61.0,59.0,13.04,16.14,,47.59359,-54.27349
2018-03-04 10:00:00+00:00,58.0,59.0,13.02,16.99,,47.59359,-54.27349
2018-03-04 10:10:00+00:00,59.0,57.0,14.98,17.01,,47.59359,-54.27349
2018-03-04 10:20:00+00:00,59.0,60.0,16.29,17.59,,47.59359,-54.27349
2018-03-04 10:30:00+00:00,57.0,57.0,14.41,17.54,,47.59359,-54.27349
2018-03-04 10:40:00+00:00,59.0,57.0,15.03,17.42,,47.59359,-54.27349
2018-03-04 10:50:00+00:00,57.0,56.0,12.69,15.89,,47.59359,-54.27349
2018-03-04 11:00:00+00:00,59.0,62.0,11.74,14.91,,47.59359,-54.27349
2018-03-04 11:10:00+00:00,73.0,72.0,12.75,14.92,,47.59359,-54.27349
2018-03-04 11:20:00+00:00,78.0,81.0,12.1,14.81,,47.59359,-54.27349
2018-03-04 11:30:00+00:00,71.0,77.0,12.06,15.78,,47.59359,-54.27349
2018-03-04 11:40:00+00:00,73.0,72.0,15.46,17.58,,47.59359,-54.27349
2018-03-04 11:50:00+00:00,68.0,69.0,16.04,17.7,,47.59359,-54.27349
2018-03-04 12:00:00+00:00,61.0,62.0,14.04,15.87,,47.59359,-54.27349
2018-03-04 12:10:00+00:00,58.0,60.0,12.28,14.51,,47.59359,-54.27349
2018-03-04 12:20:00+00:00,60.0,68.0,11.4,14.76,,47.59359,-54.27349
2018-03-04 12:30:00+00:00,72.0,76.0,12.09,16.79,,47.59359,-54.27349
2018-03-04 12:40:00+00:00,73.0,75.0,11.82,16.58,,47.59359,-54.27349
2018-03-04 12:50:00+00:00,73.0,75.0,15.02,17.1,,47.59359,-54.27349
2018-03-04 13:00:00+00:00,73.0,73.0,15.02,17.6,,47.59359,-54.27349
2018-03-04 13:10:00+00:00,67.0,69.0,12.41,16.14,,47.59359,-54.27349
2018-03-04 13:20:00+00:00,72.0,78.0,11.6,16.55,,47.59359,-54.27349
2018-03-04 13:30:00+00:00,70.0,71.0,10.58,13.96,,47.59359,-54.27349
2018-03-04 13:40:00+00:00,72.0,71.0,11.91,16.63,,47.59359,-54.27349
2018-03-04 13:50:00+00:00,73.0,71.0,13.56,16.75,,47.59359,-54.27349
2018-03-04 14:00:00+00:00,73.0,73.0,14.77,16.66,,47.59359,-54.27349
2018-03-04 14:10:00+00:00,72.0,71.0,14.46,17.35,,47.59359,-54.27349
2018-03-04 14:20:00+00:00,74.0,75.0,12.93,17.06,,47.59359,-54.27349
2018-03-04 14:30:00+00:00,76.0,75.0,15.11,17.17,,47.59359,-54.27349
2018-03-04 14:40:00+00:00,71.0,76.0,14.85,17.21,,47.59359,-54.27349
2018-03-04 14:50:00+00:00,71.0,73.0,16.09,17.31,,47.59359,-54.27349
2018-03-04 15:00:00+00:00,72.0,71.0,14.05,17.21,,47.59359,-54.27349
2018-03-04 15:10:00+00:00,73.0,77.0,11.73,15.57,,47.59359,-54.27349
2018-03-04 15:20:00+00:00,74.0,75.0,14.72,17.35,,47.59359,-54.27349
2018-03-04 15:30:00+00:00,71.0,70.0,14.75,16.88,,47.59359,-54.27349
2018-03-04 15:40:00+00:00,72.0,74.0,13.95,17.32,,47.59359,-54.27349
2018-03-04 15:50:00+00:00,72.0,70.0,14.34,17.28,,47.59359,-54.27349
2018-03-04 16:00:00+00:00,70.0,70.0,13.25,16.69,,47.59359,-54.27349
2018-03-04 16:10:00+00:00,72.0,74.0,13.54,16.82,,47.59359,-54.27349
2018-03-04 16:20:00+00:00,72.0,75.0,14.94,17.19,,47.59359,-54.27349
2018-03-04 16:30:00+00:00,71.0,71.0,13.55,17.03,,47.59359,-54.27349
2018-03-04 16:40:00+00:00,71.0,76.0,12.94,16.98,,47.59359,-54.27349
2018-03-04 16:50:00+00:00,71.0,74.0,11.86,15.69,,47.59359,-54.27349
2018-03-04 17:00:00+00:00,71.0,74.0,12.66,17.1,,47.59359,-54.27349
2018-03-04 17:10:00+00:00,69.0,74.0,11.75,16.92,,47.59359,-54.27349
2018-03-04 17:20:00+00:00,70.0,74.0,12.41,16.57,,47.59359,-54.27349
2018-03-04 17:30:00+00:00,68.0,69.0,13.23,17.01,,47.59359,-54.27349
2018-03-04 17:40:00+00:00,68.0,74.0,11.62,17.18,,47.59359,-54.27349
2018-03-04 17:50:00+00:00,67.0,72.0,13.2,17.14,,47.59359,-54.27349
2018-03-04 18:00:00+00:00,69.0,69.0,13.53,17.09,,47.59359,-54.27349
2018-03-04 18:10:00+00:00,68.0,74.0,12.07,17.71,,47.59359,-54.27349
2018-03-04 18:20:00+00:00,66.0,71.0,12.38,16.54,,47.59359,-54.27349
2018-03-04 18:30:00+00:00,68.0,75.0,11.32,16.6,,47.59359,-54.27349
2018-03-04 18:40:00+00:00,66.0,64.0,10.04,12.52,,47.59359,-54.27349
2018-03-04 18:50:00+00:00,69.0,72.0,13.85,17.4,,47.59359,-54.27349
2018-03-04 19:00:00+00:00,68.0,70.0,12.18,16.22,,47.59359,-54.27349
2018-03-04 19:10:00+00:00,69.0,73.0,13.72,17.34,,47.59359,-54.27349
2018-03-04 19:20:00+00:00,69.0,70.0,14.41,17.52,,47.59359,-54.27349
2018-03-04 19:30:00+00:00,70.0,72.0,12.23,17.06,,47.59359,-54.27349
2018-03-04 19:40:00+00:00,67.0,74.0,10.84,14.38,,47.59359,-54.27349
2018-03-04 19:50:00+00:00,67.0,70.0,10.37,13.72,,47.59359,-54.27349
2018-03-04 20:00:00+00:00,74.0,77.0,14.09,18.13,,47.59359,-54.27349
2018-03-04 20:10:00+00:00,72.0,74.0,14.07,17.55,,47.59359,-54.27349
2018-03-04 20:20:00+00:00,74.0,69.0,13.44,17.2,,47.59359,-54.27349
2018-03-04 20:30:00+00:00,75.0,77.0,16.76,18.69,,47.59359,-54.27349
2018-03-04 20:40:00+00:00,75.0,77.0,16.44,18.36,,47.59359,-54.27349
2018-03-04 20:50:00+00:00,75.0,76.0,15.96,18.72,,47.59359,-54.27349
2018-03-04 21:00:00+00:00,74.0,73.0,15.64,18.34,,47.59359,-54.27349
2018-03-04 21:10:00+00:00,74.0,71.0,15.08,18.0,,47.59359,-54.27349
2018-03-04 21:20:00+00:00,73.0,73.0,16.15,18.73,,47.59359,-54.27349
2018-03-04 21:30:00+00:00,75.0,77.0,16.46,18.84,,47.59359,-54.27349
2018-03-04 21:40:00+00:00,75.0,75.0,14.97,18.13,,47.59359,-54.27349
2018-03-04 21:50:00+00:00,75.0,74.0,14.35,17.96,,47.59359,-54.27349
2018-03-04 22:00:00+00:00,71.0,76.0,11.18,14.87,,47.59359,-54.27349
2018-03-04 22:10:00+00:00,74.0,76.0,11.62,16.71,,47.59359,-54.27349
2018-03-04 22:20:00+00:00,74.0,76.0,13.16,17.65,,47.59359,-54.27349
2018-03-04 22:30:00+00:00,73.0,74.0,16.21,18.66,,47.59359,-54.27349
2018-03-04 22:40:00+00:00,73.0,76.0,13.31,17.72,,47.59359,-54.27349
2018-03-04 22:50:00+00:00,74.0,76.0,14.02,17.89,,47.59359,-54.27349
2018-03-04 23:00:00+00:00,73.0,77.0,12.19,16.63,,47.59359,-54.27349
2018-03-04 23:10:00+00:00,75.0,76.0,14.81,18.3,,47.59359,-54.27349
2018-03-04 23:20:00+00:00,73.0,72.0,15.73,18.72,,47.59359,-54.27349
2018-03-04 23:30:00+00:00,74.0,74.0,15.89,18.44,,47.59359,-54.27349
2018-03-04 23:40:00+00:00,72.0,76.0,13.95,17.87,,47.59359,-54.27349
2018-03-04 23:50:00+00:00,72.0,72.0,16.0,18.34,,47.59359,-54.27349
